Tracking 31027 objects as of 19-Jul-2025
HD Live streaming from Space Station
objects crossing your sky now

OBJECT X

Track OBJECT X now!
10-day predictions


NORAD ID: 57025
Int'l Code: 2023-085X
Perigee: 380.3 km
Apogee: 385.7 km
Inclination: 97.5 °
Period: 92.1 minutes
Semi major axis: 6753 km
RCS: Unknown
Launch date: June 15, 2023
Source: People's Republic of China (PRC)
Launch site: Taiyaun Space Center, China (TSC)
Your satellite tracking list
CZ-4C DEB
Track 1 satellite(s)




NASA's NSSDC Master Catalog

Two Line Element Set (TLE):
1 57025U 23085X   25199.86446588  .00094509  00000-0  99041-3 0  9995
2 57025  97.4714 316.4996 0003942 131.4615 228.6983 15.64089387116580
Source of the keplerian elements: AFSPC